Location: Palomar Mountain Lodge
(33.3110°N, 116.8495°W)
Time: 02:20:41
(UTC-07:00)

Cosmos 1975 Rocket - Pass Details

Date: 19 May 2017
Orbit: 603 x 635 km, 82.5° (Epoch: 16 October)

Event Time Altitude Azimuth Distance (km) Brightness Sun altitude
Rises 20:07:37 0° 170° (S) 2,910 6.1 -5.3°
Reaches altitude 10° 20:09:55 10° 163° (SSE) 2,008 5.3 -5.7°
Maximum altitude 20:14:08 43° 92° (E) 896 3.5 -6.5°
Drops below altitude 10° 20:18:22 10° 21° (NNE) 2,020 5.8 -7.3°
Sets 20:20:42 0° 15° (NNE) 2,929 6.7 -7.7°
